Weather History for LHDC - October, 2013

Change the Weather History Date:

Tuesday, October 1, 2013

  Actual Average Record
Temperature  
Mean Temperature 50 °F -  
Max Temperature 53 °F 61 °F - ()
Min Temperature 46 °F 42 °F - ()
Degree Days  
Heating Degree Days 16    
Moisture  
Dew Point 41 °F    
Average Humidity 72    
Maximum Humidity 87    
Minimum Humidity 51    
Precipitation  
Precipitation 0.04 in 0.04 in - ()
Sea Level Pressure  
Sea Level Pressure 29.82 in    
Wind  
Wind Speed 13 mph ()    
Max Wind Speed 18 mph    
Max Gust Speed 28 mph    
Visibility 6.8 miles    
Events Rain    
T = Trace of Precipitation, MM = Missing Value Source: Averaged Metar Reports

Daily Weather History Graph

Daily Weather History Graph

Search for Another Location

Airport or City:

Trip Planner

Search our weather history database for the weather conditions in past years. The results will help you decide how hot, cold, wet, or windy it might be!

Date:

Astronomy

Oct. 01, 2013 Rise Set
Actual Time 6:32 AM CEST 6:13 PM CEST
Civil Twilight 6:01 AM CEST 6:43 PM CEST
Nautical Twilight 5:26 AM CEST 7:19 PM CEST
Astronomical Twilight 4:49 AM CEST 7:55 PM CEST
Moon 2:35 AM CEST (10/1) 4:17 PM CEST (10/1)
Length of Visible Light 12h 41m
Length of Day
11h 40m
Waning Crescent, 14% of the Moon is Illuminated
Oct 1
Waning Crescent
Oct 5
New
Oct 12
First Quarter
Oct 19
Full
Oct 27
Last Quarter

Hourly Weather History & Observations

Time (CEST) Temp. Windchill Dew Point Humidity Pressure Visibility Wind Dir Wind Speed Gust Speed Precip Events Conditions
2:00 AM 52 °F - 39 °F 51% 29.78 in - NE 13.4 mph - -  
4:45 AM 48.2 °F - 37.4 °F 66% 29.77 in - NNE 12.7 mph - N/A   Clear
5:15 AM 48.2 °F - 37.4 °F 66% 29.77 in - NNE 13.8 mph - N/A   Clear
5:45 AM 48.2 °F - 37.4 °F 66% 29.77 in - NNE 15.0 mph - N/A   Clear
6:15 AM 48.2 °F - 37.4 °F 66% 29.77 in - NNE 15.0 mph - N/A   Clear
6:45 AM 48.2 °F - 37.4 °F 66% 29.77 in 6.2 mi NNE 12.7 mph - N/A   Mostly Cloudy
7:00 AM - - - N/A% - 2.5 mi NNE 13.8 mph - N/A Rain Light Rain
7:15 AM 48.2 °F - 37.4 °F 66% 29.77 in 6.2 mi NNE 13.8 mph - N/A   Mostly Cloudy
7:45 AM 48.2 °F - 37.4 °F 66% 29.77 in 6.2 mi NNE 15.0 mph - N/A   Overcast
8:00 AM 48 °F - 37 °F 55% 29.79 in 12 mi NNE 15.7 mph - -   Partly Cloudy
8:13 AM 48.2 °F - 37.4 °F 66% 29.80 in - NNE 13.8 mph - N/A   Unknown
8:15 AM 48.2 °F - 37.4 °F 66% 29.80 in 6.2 mi NNE 13.8 mph - N/A Rain Light Rain
8:45 AM 48.2 °F - 37.4 °F 66% 29.80 in 6.2 mi NNE 15.0 mph - N/A   Overcast
9:15 AM 50.0 °F - 39.2 °F 66% 29.80 in 6.2 mi NE 13.8 mph - N/A   Overcast
9:45 AM 50.0 °F - 39.2 °F 66% 29.80 in 6.2 mi NE 16.1 mph - N/A   Overcast
10:00 AM - - - N/A% - 6.2 mi NE 16.1 mph - N/A   Overcast
10:15 AM 51.8 °F - 39.2 °F 62% 29.80 in 6.2 mi NE 15.0 mph - N/A   Overcast
10:45 AM 51.8 °F - 41.0 °F 67% 29.80 in 6.2 mi ENE 15.0 mph - N/A   Mostly Cloudy
11:15 AM 51.8 °F - 42.8 °F 71% 29.80 in 6.2 mi ENE 17.3 mph - N/A   Mostly Cloudy
11:45 AM 51.8 °F - 42.8 °F 71% 29.83 in 6.2 mi NE 15.0 mph - N/A   Mostly Cloudy
12:15 PM 50.0 °F - 44.6 °F 82% 29.83 in 6.2 mi NE 16.1 mph - N/A Rain Light Rain
12:29 PM 50.0 °F - 46.4 °F 87% 29.83 in 6.2 mi NE 16.1 mph - N/A Rain Light Rain
12:45 PM 50.0 °F - 46.4 °F 87% 29.83 in 6.2 mi NE 15.0 mph - N/A Rain Light Rain
1:00 PM - - - N/A% - 6.2 mi NE 16.1 mph - N/A   Overcast
1:15 PM 51.8 °F - 46.4 °F 82% 29.83 in 6.2 mi NE 11.5 mph - N/A   Mostly Cloudy
1:19 PM 51.8 °F - 44.6 °F 76% 29.83 in - ENE 13.8 mph 27.6 mph N/A   Unknown
1:45 PM 51.8 °F - 42.8 °F 71% 29.83 in 6.2 mi East 17.3 mph - N/A   Mostly Cloudy
2:00 PM 52 °F - 43 °F 63% 29.82 in 16 mi East 17.9 mph - - Rain Light Rain
2:15 PM 53.6 °F - 42.8 °F 67% 29.83 in 6.2 mi ENE 12.7 mph - N/A   Mostly Cloudy
2:34 PM 51.8 °F - 42.8 °F 71% 29.83 in 6.2 mi ENE 15.0 mph - N/A   Overcast
2:45 PM 51.8 °F - 42.8 °F 71% 29.83 in 6.2 mi ENE 15.0 mph - N/A   Overcast
3:15 PM 51.8 °F - 42.8 °F 71% 29.83 in 6.2 mi ENE 16.1 mph - N/A   Overcast
3:45 PM 51.8 °F - 42.8 °F 71% 29.83 in 6.2 mi ENE 15.0 mph - N/A   Overcast
4:15 PM 51.8 °F - 42.8 °F 71% 29.83 in 6.2 mi ENE 11.5 mph - N/A   Overcast
4:45 PM 50.0 °F - 42.8 °F 76% 29.86 in 6.2 mi ENE 11.5 mph - N/A   Overcast
5:15 PM 50.0 °F - 42.8 °F 76% 29.86 in 6.2 mi ENE 15.0 mph - N/A   Overcast
5:45 PM 50.0 °F - 42.8 °F 76% 29.86 in 6.2 mi ENE 12.7 mph - N/A   Overcast
6:15 PM 48.2 °F - 42.8 °F 82% 29.89 in 6.2 mi ENE 11.5 mph - N/A   Overcast
6:45 PM 48.2 °F - 42.8 °F 82% 29.89 in 6.2 mi ENE 11.5 mph - N/A   Overcast
7:15 PM 48.2 °F - 42.8 °F 82% 29.89 in 6.2 mi ENE 11.5 mph - N/A   Overcast
7:45 PM 46.4 °F 41.1 °F 42.8 °F 87% 29.89 in 6.2 mi ENE 11.5 mph - N/A Rain Light Rain
8:00 PM 47 °F - 43 °F 80% 29.90 in 16 mi ENE 11.2 mph - - Rain Light Rain
8:15 PM 46.4 °F 41.1 °F 42.8 °F 87% 29.89 in 6.2 mi ENE 11.5 mph - N/A Rain Light Rain
8:45 PM 46.4 °F 41.5 °F 42.8 °F 87% 29.92 in 6.2 mi ENE 10.4 mph - N/A Rain Light Rain
9:00 PM - - - N/A% - - North - - N/A   Unknown